DW1970 Bodega Bay CA US current weather conditions

sailwx.info

Wind from 201

Air temperature 14.4° C
Dewpoint 14.1° C

Last reported at 2018-Jul-22 06:10 UTC.
Time now 2018-Jul-22 06:53 UTC

Location: N 38°23' W 123°04'.
View on Google Maps.

See reports from other nearby stations

  
Tides and Currents Weather Stations Pressure Air Temp Water Temp Dewpoint Dewpoint Depression Visibility Wind Speed Wind Dir Waves Ship Positions
date/time (UTC)wind fromknots sea level pressurealtimeterstation pressurevisibilityair tempwater tempwave heightnotes
2018-Jul-22 06:10 201 14.4
2018-Jul-22 05:55 201 0 14.4
2018-Jul-22 05:40 207 0 15.0
2018-Jul-22 05:25 231 15.0
2018-Jul-22 05:10 231 15.0
2018-Jul-22 04:55 240 15.0
2018-Jul-22 04:40 240 0 15.0
2018-Jul-22 04:25 241 15.0
2018-Jul-22 04:09 241 0 15.0
2018-Jul-22 03:54 241 0 15.0
2018-Jul-22 03:39 241 15.0
2018-Jul-22 03:25 241 15.0
2018-Jul-22 03:10 241 1 15.0
2018-Jul-22 02:54 241 1 15.0
2018-Jul-22 02:39 256 1 15.6
2018-Jul-22 02:24 252 2 15.6
2018-Jul-22 02:09 248 2 15.6
2018-Jul-22 01:54 263 2 15.6
2018-Jul-22 01:39 275 3 16.1
2018-Jul-22 01:24 277 2 16.1
2018-Jul-22 01:09 277 2 16.7
2018-Jul-22 00:54 264 2 16.7
2018-Jul-22 00:39 238 2 16.7
2018-Jul-22 00:24 239 2 16.7
2018-Jul-22 00:09 244 3 16.7
2018-Jul-21 23:54 229 2 16.7
2018-Jul-21 23:39 238 2 17.2
2018-Jul-21 23:24 254 3 17.2
2018-Jul-21 23:09 246 2 17.2
2018-Jul-21 22:54 261 2 17.2
2018-Jul-21 22:39 209 2 17.2
2018-Jul-21 22:24 216 3 17.8
2018-Jul-21 22:09 210 3 17.8
2018-Jul-21 21:54 236 3 17.8
2018-Jul-21 21:39 224 3 17.8
2018-Jul-21 21:24 171 3 17.2
2018-Jul-21 21:09 208 3 17.2
2018-Jul-21 20:54 205 2 17.2
2018-Jul-21 20:39 196 2 17.8
2018-Jul-21 20:24 161 4 17.8
2018-Jul-21 20:09 180 4 17.8
2018-Jul-21 19:54 164 2 18.3
2018-Jul-21 19:39 192 4 17.8
2018-Jul-21 19:24 212 3 18.3
2018-Jul-21 19:09 202 5 17.8
2018-Jul-21 18:54 157 3 17.8
2018-Jul-21 18:39 206 3 17.8
2018-Jul-21 18:24 159 4 17.2
2018-Jul-21 18:09 163 3 17.2
2018-Jul-21 17:54 157 3 17.2
2018-Jul-21 17:39 163 5 16.7
2018-Jul-21 17:24 163 4 17.2
2018-Jul-21 17:09 146 4 16.7
2018-Jul-21 16:54 146 3 16.1
2018-Jul-21 16:39 159 5 15.6
2018-Jul-21 16:24 119 5 15.6
2018-Jul-21 16:09 148 5 15.6
2018-Jul-21 15:54 139 4 15.0
2018-Jul-21 15:39 126 7 15.0
2018-Jul-21 15:24 149 6 15.0
2018-Jul-21 15:09 139 6 15.0
2018-Jul-21 14:54 120 6 14.4
2018-Jul-21 14:39 138 5 14.4
2018-Jul-21 14:24 125 1 14.4
2018-Jul-21 14:09 121 2 14.4
2018-Jul-21 13:54 100 0 13.9
2018-Jul-21 13:45 100 1 gusting 1 14.4
2018-Jul-21 13:40 100 14.4
2018-Jul-21 13:38 100 0 13.9
2018-Jul-21 13:30 100 3 gusting 3 13.9
2018-Jul-21 13:25 104 1 gusting 1 13.9
2018-Jul-21 13:23 104 13.9
2018-Jul-21 13:09 105 0 13.9
2018-Jul-21 12:54 105 2 13.9
2018-Jul-21 12:39 104 1 13.9
2018-Jul-21 12:24 138 13.9
2018-Jul-21 12:09 138 1 13.9
2018-Jul-21 11:54 138 2 13.9
2018-Jul-21 11:39 161 13.9
2018-Jul-21 11:24 161 13.9
2018-Jul-21 11:09 161 13.9
2018-Jul-21 10:54 161 13.9
2018-Jul-21 10:39 161 13.9
2018-Jul-21 10:24 161 0 13.9
2018-Jul-21 10:08 161 13.9
2018-Jul-21 09:53 161 13.9
2018-Jul-21 09:38 161 13.9
2018-Jul-21 09:24 161 13.9
2018-Jul-21 09:08 161 13.9
2018-Jul-21 08:53 161 13.9
2018-Jul-21 08:38 161 13.9
2018-Jul-21 08:23 161 13.9
2018-Jul-21 08:08 161 13.9
2018-Jul-21 07:53 161 13.9
2018-Jul-21 07:38 161 13.9
2018-Jul-21 07:23 161 13.9
2018-Jul-21 07:08 161 13.9
2018-Jul-21 06:53 161 13.9
2018-Jul-21 06:38 161 13.9
2018-Jul-21 06:23 161 13.9
2018-Jul-21 06:08 161 13.9
2018-Jul-21 05:53 161 13.9
2018-Jul-21 05:38 161 13.9
2018-Jul-21 05:24 161 13.9
2018-Jul-21 05:08 161 13.9
2018-Jul-21 04:53 161 13.9
2018-Jul-21 04:38 161 13.9
2018-Jul-21 04:23 161 13.9
2018-Jul-21 04:08 161 14.4
2018-Jul-21 03:53 161 14.4
2018-Jul-21 03:38 161 14.4
2018-Jul-21 03:23 161 14.4
2018-Jul-21 03:08 161 14.4
2018-Jul-21 02:53 157 0 14.4
2018-Jul-21 02:38 195 0 15.0
2018-Jul-21 02:23 188 1 15.0
2018-Jul-21 02:08 192 0 15.0
2018-Jul-21 01:53 163 3 15.6
2018-Jul-21 01:38 196 3 16.1
2018-Jul-21 01:23 167 3 16.1
2018-Jul-21 01:08 169 3 16.7
2018-Jul-21 00:53 194 4 16.7
2018-Jul-21 00:38 164 4 16.7
2018-Jul-21 00:23 155 4 16.7
2018-Jul-21 00:08 146 4 16.7
2018-Jul-20 23:53 159 4 17.2
2018-Jul-20 23:38 161 4 17.2
2018-Jul-20 23:23 155 5 16.7
2018-Jul-20 23:08 160 6 16.7
2018-Jul-20 22:53 165 4 17.2
2018-Jul-20 22:38 163 4 17.2
2018-Jul-20 22:23 163 5 17.2
2018-Jul-20 22:08 162 6 17.8
2018-Jul-20 21:53 150 5 17.2
2018-Jul-20 21:38 153 5 17.2
2018-Jul-20 21:23 183 6 17.8
2018-Jul-20 21:08 202 6 17.8
2018-Jul-20 20:53 215 8 17.8
2018-Jul-20 20:38 161 11 18.3
2018-Jul-20 20:23 164 10 18.3
2018-Jul-20 20:08 158 10 18.3
2018-Jul-20 19:53 151 10 18.3
2018-Jul-20 19:38 157 11 17.8
2018-Jul-20 19:23 149 11 17.8
2018-Jul-20 19:08 163 10 17.8
2018-Jul-20 18:53 163 10 17.8
2018-Jul-20 18:38 157 10 17.2
2018-Jul-20 18:23 144 10 17.2
2018-Jul-20 18:08 152 11 17.2
2018-Jul-20 17:53 153 11 16.7
2018-Jul-20 17:38 142 11 16.7
2018-Jul-20 17:23 157 8 16.7
2018-Jul-20 17:08 150 7 16.7
2018-Jul-20 16:53 161 7 15.6
2018-Jul-20 16:38 153 6 15.0
2018-Jul-20 16:23 148 5 15.0
2018-Jul-20 16:07 147 5 14.4
2018-Jul-20 15:52 144 5 13.9
2018-Jul-20 15:37 131 3 13.9
2018-Jul-20 15:22 120 2 13.9
2018-Jul-20 15:07 108 1 13.9
2018-Jul-20 14:37 098 0 13.3
2018-Jul-20 14:22 098 1 13.3
2018-Jul-20 13:52 096 2 13.3
2018-Jul-20 13:37 121 2 12.8
2018-Jul-20 13:22 108 2 12.8
2018-Jul-20 13:07 113 5 12.8
2018-Jul-20 12:52 123 4 12.8
2018-Jul-20 12:37 123 1 12.8
2018-Jul-20 12:22 123 1 12.8
2018-Jul-20 12:07 123 5 12.8
2018-Jul-20 11:52 127 1 12.8
2018-Jul-20 11:37 126 2 12.8
2018-Jul-20 11:22 128 4 12.8
2018-Jul-20 11:07 132 3 12.8
2018-Jul-20 10:52 132 2 12.8
2018-Jul-20 10:37 132 4 12.8
2018-Jul-20 10:22 134 2 12.8
2018-Jul-20 10:07 137 3 12.8
2018-Jul-20 09:52 136 1 12.8
2018-Jul-20 09:37 136 2 12.8
2018-Jul-20 09:22 121 0 12.8
2018-Jul-20 09:07 121 3 12.2
2018-Jul-20 08:52 124 5 12.2
2018-Jul-20 08:37 126 4 12.2
2018-Jul-20 08:22 128 6 12.2
2018-Jul-20 08:07 126 5 12.2
2018-Jul-20 07:52 119 3 12.8
2018-Jul-20 07:37 117 2 12.8
2018-Jul-20 07:22 121 3 12.8
2018-Jul-20 07:07 121 4 12.8
2018-Jul-20 06:52 124 3 12.8
2018-Jul-20 06:37 124 3 12.8
2018-Jul-20 06:22 118 4 12.8
2018-Jul-20 06:07 121 2 12.8